This demonstration page uses our WeatherBlox Daily Observations layout. Learn more.

Left ArrowRight Arrow

34.16533, -84.80231

Hourly Observations for August 24, 2019

Temp ( °F °C ) Dew Point ( °F °C ) Humidity (%) Winds ( mph kmh ) Pressure ( in mb ) Visibility ( mi km ) Precip ( " mm )
12:53 am 00:53 Clear 75 23.9 73 22.8 94 94 Calm 30.01 1016 10 16 0.00 0.00
1:53 am 01:53 Clear 74 23.3 72 22.2 94 94 Calm 30.00 1016 10 16 0.00 0.00
2:53 am 02:53 Clear 74 23.3 72 22.2 94 94 Calm 29.98 1015 9 14 0.00 0.00
3:53 am 03:53 Clear 74 23.3 72 22.2 94 94 Calm 29.98 1015 8 13 0.00 0.00
4:36 am 04:36 Partly Cloudy 73 22.8 71 21.7 94 94 Calm 30.00 1016 8 13 0.00 0.00
4:44 am 04:44 Mostly Cloudy 74 23.3 72 22.2 94 94 Calm 29.99 1016 7 11 0.00 0.00
4:49 am 04:49 Mostly Cloudy with Mist and Fog 73 23 72 22 94 94 Calm 29.99 1016 2 2 0.00 0.00
4:53 am 04:53 Cloudy with Mist and Fog 73 22.8 72 22.2 96 96 Calm 29.98 1015 1 2 0.00 0.00
5:11 am 05:11 Mostly Cloudy with Mist and Fog 73 22.8 71 21.7 94 94 Calm 30.00 1016 1 1 0.00 0.00
5:19 am 05:19 Mostly Cloudy with Fog 73 22.8 72 22.2 96 96 Calm 30.00 1016 1 1 0.00 0.00
5:34 am 05:34 Cloudy with Mist and Fog 73 22.8 72 22.2 96 96 Calm 30.01 1016 2 3 0.00 0.00
5:42 am 05:42 Cloudy with Mist and Fog 73 22.8 72 22.2 96 96 Calm 30.01 1016 4 6 0.00 0.00
5:46 am 05:46 Cloudy with Mist and Fog 73 22.8 72 22.2 96 96 Calm 30.01 1016 2 2 0.00 0.00
5:53 am 05:53 Cloudy with Fog 73 22.8 72 22.2 96 96 Calm 29.99 1016 0 0 0.00 0.00
6:48 am 06:48 Mostly Cloudy with Mist and Fog 73 23 72 22 94 94 Calm 30.02 1017 1 1 0.00 0.00
6:53 am 06:53 Mostly Cloudy with Mist and Fog 73 22.8 71 21.7 94 94 Calm 30.01 1016 1 2 0.00 0.00
7:10 am 07:10 Cloudy with Mist and Fog 73 22.8 71 21.7 94 94 Calm 30.03 1017 3 4 0.00 0.00
7:19 am 07:19 Cloudy with Mist and Fog 73 22.8 72 22.2 96 96 Calm 30.04 1017 2 3 0.00 0.00
7:37 am 07:37 Cloudy with Mist and Fog 73 22.8 72 22.2 96 96 Calm 30.04 1017 2 3 0.00 0.00
7:44 am 07:44 Cloudy with Mist and Fog 74 23.3 72 22.2 94 94 Calm 30.03 1017 2 3 0.00 0.00
7:53 am 07:53 Cloudy with Mist and Fog 74 23.3 72 22.2 94 94 Calm 30.02 1017 2 3 0.00 0.00
8:01 am 08:01 Cloudy with Mist and Fog 74 23.3 73 22.8 97 97 Calm 30.03 1017 3 5 0.00 0.00
8:41 am 08:41 Cloudy with Mist and Fog 74 23.3 72 22.2 94 94 Calm 30.04 1017 3 4 0.00 0.00
8:53 am 08:53 Cloudy with Mist and Fog 74 23.3 73 22.8 97 97 Calm 30.03 1017 4 6 0.00 0.00
9:51 am 09:51 Mostly Cloudy 79 26 73 23 84 84 NNW 3 6 30.05 1017 9 14 0.00 0.00
9:53 am 09:53 Mostly Cloudy 78 25.6 72 22.2 82 82 Calm 30.04 1017 9 14 0.00 0.00
10:26 am 10:26 Partly Cloudy 81 27.2 73 22.8 77 77 Calm 30.04 1017 10 16 0.00 0.00
10:46 am 10:46 Mostly Cloudy 82 27.8 73 22.8 74 74 NNW 6 9 30.04 1017 10 16 0.00 0.00
10:53 am 10:53 Mostly Cloudy 82 27.8 73 22.8 74 74 VRB 3 6 30.03 1017 10 16 0.00 0.00
11:22 am 11:22 Partly Cloudy 84 28.9 73 22.8 70 70 Calm 30.03 1017 10 16 0.00 0.00
11:35 am 11:35 Mostly Cloudy 84 28.9 73 22.8 70 70 VRB 5 7 30.03 1017 10 16 0.00 0.00
11:51 am 11:51 Partly Cloudy 84 29 73 23 70 70 ENE 3 6 30.02 1017 10 16 0.00 0.00
11:53 am 11:53 Partly Cloudy 86 30 72 22.2 63 63 Calm 30.02 1017 10 16 0.00 0.00
12:53 pm 12:53 Partly Cloudy 87 30.6 72 22.2 61 61 S 5 7 30.01 1016 10 16 0.00 0.00
1:53 pm 13:53 Partly Cloudy 90 32.2 73 22.8 58 58 Calm 29.98 1015 10 16 0.00 0.00
2:53 pm 14:53 Partly Cloudy 91 32.8 72 22.2 54 54 Calm 29.96 1015 10 16 0.00 0.00
3:53 pm 15:53 Partly Cloudy 89 31.7 72 22.2 57 57 NNE 7 11 29.94 1014 10 16 0.00 0.00
4:53 pm 16:53 Sunny 87 30.6 69 20.6 55 55 ENE 9 15 29.94 1014 10 16 0.00 0.00
5:53 pm 17:53 Sunny 84 28.9 68 20 59 59 NE 7 11 29.94 1014 10 16 0.00 0.00
6:53 pm 18:53 Sunny 84 28.9 71 21.7 65 65 VRB 5 7 29.95 1014 10 16 0.00 0.00
7:53 pm 19:53 Partly Cloudy 83 28.3 72 22.2 70 70 ESE 6 9 29.97 1015 10 16 0.00 0.00
8:53 pm 20:53 Clear 79 26.1 72 22.2 79 79 Calm 29.98 1015 10 16 0.00 0.00
9:53 pm 21:53 Cloudy 79 26.1 72 22.2 79 79 Calm 30.03 1017 10 16 0.00 0.00
10:16 pm 22:16 Mostly Cloudy 79 26.1 71 21.7 77 77 ESE 5 7 30.04 1017 10 16 0.00 0.00
10:51 pm 22:51 Cloudy 79 26 72 22 79 79 E 6 9 30.04 1017 10 16 0.00 0.00
10:53 pm 22:53 Cloudy 78 25.6 71 21.7 79 79 VRB 6 9 30.03 1017 10 16 0.00 0.00
11:53 pm 23:53 Mostly Cloudy 77 25 70 21.1 79 79 E 8 13 30.04 1017 10 16 0.00 0.00

Powered by AerisWeather